GSIXT LDLY-LFXA

Flight info

Callsign GSIXT
Flight time N/A
Altitude 3000
Route LSE
Aircraft P28A/L-V/N

Departure

Time N/A
Airport LDLY

Arrival

Time 2026-04-26 08:05
Airport Ambérieu Air Base (BA 278) (LFXA)
Time Latitude Longitude Altitude Speed Heading
2026-04-26 07:38 45.72949 4.93938 653 ft 0 kts 343°
2026-04-26 07:40 45.72969 4.93930 652 ft 9 kts 343°
2026-04-26 07:40 45.73016 4.93971 652 ft 11 kts 69°
2026-04-26 07:41 45.72988 4.94066 653 ft 14 kts 88°
2026-04-26 07:41 45.72989 4.94167 653 ft 0 kts 90°
2026-04-26 07:42 45.72990 4.94175 653 ft 5 kts 84°
2026-04-26 07:42 45.72988 4.94283 654 ft 16 kts 116°
2026-04-26 07:42 45.72852 4.94367 654 ft 27 kts 164°
2026-04-26 07:42 45.72648 4.94456 654 ft 32 kts 163°
2026-04-26 07:43 45.72443 4.94508 657 ft 27 kts 174°
2026-04-26 07:43 45.72483 4.94529 656 ft 18 kts 341°
2026-04-26 07:43 45.72696 4.94437 654 ft 53 kts 343°
2026-04-26 07:43 45.73131 4.94250 746 ft 68 kts 343°
2026-04-26 07:44 45.73584 4.94051 895 ft 68 kts 342°
2026-04-26 07:44 45.74051 4.93857 1057 ft 71 kts 345°
2026-04-26 07:44 45.74536 4.93699 1229 ft 73 kts 348°
2026-04-26 07:44 45.75038 4.93753 1426 ft 73 kts 27°
2026-04-26 07:45 45.75280 4.94358 1645 ft 75 kts 85°
2026-04-26 07:45 45.75094 4.95108 1806 ft 83 kts 107°
2026-04-26 07:45 45.74873 4.95872 2035 ft 83 kts 105°
2026-04-26 07:45 45.74648 4.96629 2208 ft 83 kts 106°
2026-04-26 07:46 45.74403 4.97380 2369 ft 83 kts 107°
2026-04-26 07:46 45.74260 4.98168 2497 ft 82 kts 90°
2026-04-26 07:46 45.74217 4.98968 2679 ft 81 kts 82°
2026-04-26 07:46 45.74233 4.99768 2963 ft 79 kts 74°
2026-04-26 07:47 45.74331 5.00511 3156 ft 84 kts 73°
2026-04-26 07:47 45.74440 5.01253 3172 ft 89 kts 70°
2026-04-26 07:47 45.74444 5.02206 3166 ft 100 kts 93°
2026-04-26 07:47 45.74294 5.03218 3144 ft 108 kts 93°
2026-04-26 07:48 45.74198 5.04288 3208 ft 105 kts 92°
2026-04-26 07:48 45.74105 5.05334 3242 ft 109 kts 90°
2026-04-26 07:48 45.74092 5.06393 3291 ft 105 kts 80°
2026-04-26 07:48 45.74131 5.07466 3344 ft 111 kts 83°
2026-04-26 07:49 45.74113 5.08605 3319 ft 115 kts 85°
2026-04-26 07:49 45.74151 5.09766 3231 ft 117 kts 76°
2026-04-26 07:49 45.74447 5.10788 3137 ft 109 kts 44°
2026-04-26 07:50 45.75838 5.11518 3082 ft 108 kts
2026-04-26 07:50 45.76605 5.11601 3011 ft 110 kts 12°
2026-04-26 07:50 45.77288 5.12072 3018 ft 107 kts 33°
2026-04-26 07:50 45.77863 5.12759 3006 ft 107 kts 36°
2026-04-26 07:51 45.78442 5.13409 3009 ft 108 kts 34°
2026-04-26 07:51 45.79022 5.14083 2986 ft 109 kts 37°
2026-04-26 07:51 45.79604 5.14792 2957 ft 110 kts 36°
2026-04-26 07:51 45.80209 5.15404 2950 ft 105 kts 36°
2026-04-26 07:52 45.80752 5.16105 2958 ft 100 kts 34°
2026-04-26 07:52 45.81311 5.16666 2982 ft 98 kts 30°
2026-04-26 07:52 45.81871 5.17204 2969 ft 96 kts 31°
2026-04-26 07:52 45.82427 5.17724 2945 ft 96 kts 30°
2026-04-26 07:53 45.82954 5.18300 2941 ft 94 kts 37°
2026-04-26 07:53 45.83425 5.18950 2920 ft 97 kts 41°
2026-04-26 07:53 45.83902 5.19634 3031 ft 97 kts 43°
2026-04-26 07:53 45.84424 5.20302 3043 ft 96 kts 36°
2026-04-26 07:54 45.84942 5.20907 3138 ft 93 kts 35°
2026-04-26 07:54 45.85513 5.21430 3138 ft 103 kts 28°
2026-04-26 07:54 45.86152 5.21908 3259 ft 99 kts 25°
2026-04-26 07:54 45.86714 5.22489 3209 ft 102 kts 40°
2026-04-26 07:55 45.87234 5.23167 3181 ft 101 kts 38°
2026-04-26 07:55 45.87754 5.23831 3240 ft 100 kts 41°
2026-04-26 07:55 45.88279 5.24497 3172 ft 99 kts 37°
2026-04-26 07:55 45.88802 5.25176 3128 ft 106 kts 39°
2026-04-26 07:56 45.89363 5.25771 3236 ft 99 kts 29°
2026-04-26 07:56 45.89938 5.26372 3242 ft 105 kts 30°
2026-04-26 07:56 45.90491 5.26987 3299 ft 101 kts 34°
2026-04-26 07:56 45.91061 5.27604 3225 ft 104 kts 38°
2026-04-26 07:57 45.91627 5.28290 3087 ft 107 kts 37°
2026-04-26 07:57 45.92198 5.28949 2998 ft 105 kts 36°
2026-04-26 07:57 45.92878 5.29423 3084 ft 107 kts 19°
2026-04-26 07:57 45.93556 5.29777 3064 ft 105 kts 17°
2026-04-26 07:58 45.94232 5.30030 2911 ft 99 kts 13°
2026-04-26 07:58 45.94921 5.30237 2868 ft 98 kts
2026-04-26 07:58 45.95600 5.30411 2652 ft 100 kts 11°
2026-04-26 07:58 45.96266 5.30622 2611 ft 94 kts 15°
2026-04-26 07:59 45.96883 5.30881 2599 ft 97 kts 10°
2026-04-26 07:59 45.97516 5.31185 2730 ft 95 kts 26°
2026-04-26 07:59 45.97907 5.31969 2786 ft 103 kts 73°
2026-04-26 07:59 45.97882 5.33009 2767 ft 105 kts 87°
2026-04-26 08:00 45.97791 5.34056 2661 ft 105 kts 94°
2026-04-26 08:00 45.97778 5.35086 2534 ft 102 kts 64°
2026-04-26 08:00 45.98311 5.35594 2423 ft 98 kts
2026-04-26 08:00 45.98895 5.35147 2347 ft 100 kts 307°
2026-04-26 08:01 45.99169 5.34241 2196 ft 98 kts 292°
2026-04-26 08:01 45.99321 5.33276 2102 ft 99 kts 285°
2026-04-26 08:01 45.99428 5.32325 2129 ft 98 kts 282°
2026-04-26 08:01 45.99533 5.31358 2110 ft 98 kts 283°
2026-04-26 08:02 45.99503 5.30392 2123 ft 102 kts 247°
2026-04-26 08:02 45.98981 5.29718 2134 ft 103 kts 201°
2026-04-26 08:02 45.98282 5.29480 2091 ft 103 kts 193°
2026-04-26 08:02 45.97609 5.29294 2080 ft 94 kts 191°
2026-04-26 08:03 45.96969 5.29145 2067 ft 93 kts 189°
2026-04-26 08:03 45.96382 5.29409 1963 ft 92 kts 134°
2026-04-26 08:03 45.96141 5.30219 1887 ft 89 kts 96°
2026-04-26 08:03 45.96042 5.31044 1755 ft 81 kts 90°
2026-04-26 08:04 45.96221 5.31772 1609 ft 76 kts 47°
2026-04-26 08:04 45.96631 5.32259 1477 ft 76 kts 29°
2026-04-26 08:04 45.97112 5.32583 1266 ft 75 kts 18°
2026-04-26 08:04 45.97577 5.32836 1099 ft 71 kts 15°
2026-04-26 08:05 45.98046 5.33020 932 ft 68 kts 11°
2026-04-26 08:05 45.98498 5.33188 823 ft 64 kts 11°
2026-04-26 08:05 45.98869 5.33302 809 ft 41 kts
2026-04-26 08:05 45.99028 5.33391 803 ft 20 kts 93°
2026-04-26 08:06 45.99000 5.33541 804 ft 12 kts 102°
2026-04-26 08:06 45.98971 5.33575 804 ft 0 kts 189°